EW1742 Weather Reports


time (UTC)temp
C
wind
direction
speed
KPH
gust
KPH
rain 1hr
cm
rain 24hr
cm
rain mn
cm
humidity
%
barometer
mb
20260502151542 13 184 0.0 0.0 0.00 0.08 0.08 75 1017.7
20260502123032 10 349 0.0 1.6 0.05 0.08 0.08 93 1018.0
20260502121520 9 349 0.0 1.6 0.05 0.08 0.08 94 1018.1
20260502114519 8 349 0.0 0.0 0.05 0.08 0.08 95 1018.5
20260502113018 8 349 0.0 0.0 0.00 0.03 0.03 95 1018.6
20260502111517 8 349 0.0 0.0 0.00 0.03 0.03 95 1018.6
20260502110016 8 349 0.0 0.0 0.00 0.03 0.03 95 1018.4
20260502104515 8 349 0.0 0.0 0.00 0.03 0.03 95 1018.3
20260502103013 8 349 0.0 0.0 0.03 0.03 0.03 95 1018.3
20260502101510 8 349 0.0 0.0 0.03 0.03 0.03 94 1017.8
20260502091505 8 349 0.0 0.0 0.00 0.00 0.00 91 1017.6
20260502080104 8 349 0.0 0.0 0.00 0.00 0.00 87 1017.5
20260502070052 9 349 0.0 1.6 0.00 0.00 0.00 82 1017.0
20260502064551 10 348 0.0 0.0 0.00 0.00 0.00 79 1017.7
20260502063057 9 348 0.0 1.6 0.00 0.00 0.00 79 1017.7
20260502061547 10 348 0.0 0.0 0.00 0.00 0.00 78 1017.5
20260502060046 10 348 0.0 1.6 0.00 0.00 0.00 77 1017.9
20260502054545 10 347 0.0 0.0 0.00 0.00 0.00 76 1017.6
20260502053043 10 347 0.0 0.0 0.00 0.00 0.00 76 1017.8
20260502051541 10 347 0.0 0.0 0.00 0.00 0.00 76 1017.8
20260502050040 10 347 0.0 0.0 0.00 0.00 0.00 75 1017.8
20260502044537 10 347 0.0 0.0 0.00 0.00 0.00 74 1018.0
20260502043036 10 347 0.0 1.6 0.00 0.00 0.00 74 1018.1
20260502041533 11 347 0.0 0.0 0.00 0.00 0.00 73 1017.9
20260502040029 10 347 0.0 0.0 0.00 0.00 0.00 74 1018.0
20260502034529 10 347 0.0 0.0 0.00 0.00 0.00 74 1018.0
20260502033034 10 347 0.0 0.0 0.00 0.00 0.00 74 1018.1
20260502031527 10 347 0.0 0.0 0.00 0.00 0.00 76 1018.2
20260502030031 10 347 0.0 0.0 0.00 0.00 0.00 74 1018.1
20260502024527 11 347 0.0 0.0 0.00 0.00 0.00 73 1018.1
20260502023026 11 347 0.0 0.0 0.00 0.00 0.00 70 1018.0
20260502021525 11 347 0.0 0.0 0.00 0.00 0.00 69 1018.0
20260502020025 11 347 0.0 1.6 0.00 0.00 0.00 68 1018.1
20260502014524 12 347 0.0 1.6 0.00 0.00 0.00 66 1017.9
20260502013024 12 341 0.0 1.6 0.00 0.00 0.00 67 1017.8
20260502011524 12 324 0.0 1.6 0.00 0.00 0.00 66 1017.7
20260502010030 12 324 0.0 0.0 0.00 0.00 0.00 64 1017.6
20260502004544 12 324 0.0 1.6 0.00 0.00 0.00 61 1017.5
20260502003022 12 284 0.0 1.6 0.00 0.00 0.00 57 1017.2
20260502001522 13 280 0.0 1.6 0.00 0.00 0.00 52 1017.0
20260502000021 13 278 0.0 0.0 0.00 0.00 0.00 51 1016.6
20260501234520 14 278 0.0 0.0 0.00 0.00 0.00 48 1016.3
20260501233018 15 278 0.0 1.6 0.00 0.00 0.00 45 1016.1
20260501231520 15 278 0.0 1.6 0.00 0.00 0.00 44 1015.9
20260501230017 16 278 0.0 1.6 0.00 0.00 0.00 42 1015.9
20260501224516 16 278 0.0 1.6 0.00 0.00 0.00 39 1015.8
20260501223016 16 278 0.0 0.0 0.00 0.00 0.00 41 1015.6
20260501221515 16 278 0.0 1.6 0.00 0.00 0.00 39 1015.7
20260501220014 16 278 0.0 1.6 0.00 0.00 0.00 39 1015.7
20260501214515 16 227 0.0 1.6 0.00 0.00 0.00 40 1015.7
20260501213028 17 190 0.0 1.6 0.00 0.00 0.00 39 1015.8
20260501211510 16 188 0.0 1.6 0.00 0.00 0.00 39 1015.7
20260501210022 16 188 0.0 1.6 0.00 0.00 0.00 39 1015.7
20260501204510 17 188 0.0 1.6 0.00 0.00 0.00 38 1015.6
20260501203008 17 188 0.0 1.6 0.00 0.00 0.00 40 1015.7
20260501201514 17 233 0.0 1.6 0.00 0.00 0.00 40 1015.8
20260501200007 16 233 0.0 3.2 0.00 0.00 0.00 40 1015.8
20260501194507 17 228 0.0 3.2 0.00 0.00 0.00 39 1015.9
20260501193006 17 229 0.0 1.6 0.00 0.00 0.00 39 1015.8
20260501191507 16 229 0.0 3.2 0.00 0.00 0.00 39 1016.0
20260501190005 17 219 0.0 1.6 0.00 0.00 0.00 38 1016.4
20260501184506 16 198 0.0 1.6 0.00 0.00 0.00 38 1016.5
20260501183005 17 248 0.0 1.6 0.00 0.00 0.00 39 1016.5
20260501181503 17 188 0.0 1.6 0.00 0.00 0.00 41 1016.6
20260501180003 17 228 0.0 1.6 0.00 0.00 0.00 37 1016.8
20260501174502 17 262 0.0 1.6 0.00 0.00 0.00 37 1016.8
20260501173001 16 229 0.0 3.2 0.00 0.00 0.00 37 1016.9
20260501171500 16 229 0.0 1.6 0.00 0.00 0.00 41 1017.0
20260501170059 17 229 0.0 1.6 0.00 0.03 0.00 41 1017.0
20260501164557 16 209 0.0 4.8 0.00 0.03 0.00 42 1017.0
20260501163059 16 217 0.0 1.6 0.00 0.03 0.00 42 1017.3
20260501161552 15 217 0.0 1.6 0.00 0.03 0.00 44 1017.3